Location: Kmicica-DOM
(53.1202°N, 23.2052°E)
Time: 05:08:42
(UTC+02:00)

USA 276 - Pass Details

Date: 14 August 2022
Orbit: 366 x 369 km, 50.0° (Epoch: 12 July)

Event Time Altitude Azimuth Distance (km) Brightness Sun altitude
Exits shadow 04:15:55 10° 232° (SW) 1,347 4.1 -7.3°
Reaches altitude 10° 04:15:55 10° 232° (SW) 1,347 4.1 -7.3°
Maximum altitude 04:18:42 34° 165° (SSE) 621 2.9 -6.9°
Drops below altitude 10° 04:21:29 10° 98° (E) 1,350 5.6 -6.6°
Sets 04:23:36 0° 89° (E) 2,199 7.0 -6.3°
